RH
16 11 12 17 19 30 31 31 34 48 59 63 68 69 63 75 80 82 63 58 68 71 67 61 57 55 53 60 63 62 61 58 54 54 65 64 72 70 67 61 38 36 56
29 20 11 16 16 24 29 33 36 40 50 56 56 57 62 82 70 69 71 67 58 58 60 57 49 54 59 53 49 44 41 57 66 85 71 42 55 69 75 74 84 82 58
41 32 23 16 16 14 21 30 34 36 41 43 44 46 46 50 53 51 47 44 46 50 51 59 54 54 58 46 41 34 58 76 66 52 37 18 15 29 58 65 65 69 82
38 40 35 29 26 22 18 43 50 48 43 33 36 40 40 40 43 42 43 43 43 38 36 37 37 36 38 36 26 39 61 60 44 34 29 20 19 20 16 15 36 59 65
42 42 42 47 43 48 38 37 44 56 44 45 42 33 34 42 46 45 42 38 39 41 41 41 37 34 35 48 87 85 62 47 36 17 16 19 19 14 13 15 18 18 23
57 54 53 51 51 53 51 53 59 55 46 45 46 47 53 59 61 63 52 44 36 30 43 43 38 38 61 84 73 78 63 56 44 33 15 13 14 12 10 11 10 9 17
34 60 60 55 50 54 52 54 50 45 39 35 32 34 33 29 36 40 49 52 53 54 63 81 86 82 80 64 79 82 62 64 49 14 10 13 13 14 9 9 10 8 7
41 52 64 58 52 50 41 36 30 27 30 32 34 31 25 32 65 70 73 86 84 85 90 95 94 84 81 88 80 73 61 57 22 9 8 12 12 11 8 8 8 8 8
39 36 66 66 45 39 38 38 35 29 31 34 29 24 28 39 72 78 96 96 94 74 90 96 94 86 82 77 74 60 58 38 17 11 10 12 11 10 9 8 8 6 6
53 52 66 55 53 55 54 52 47 38 36 32 30 43 65 76 80 81 82 71 66 79 95 95 94 86 85 73 51 45 49 38 30 10 10 9 9 9 10 10 10 9 6
79 74 63 64 65 59 50 45 41 39 39 39 37 58 76 62 39 48 54 49 52 62 94 95 96 90 83 63 38 43 44 37 30 14 10 9 8 8 8 9 11 9 6
70 80 76 71 67 57 49 42 56 63 60 40 44 56 46 26 29 25 28 25 51 67 68 77 83 82 67 59 40 29 27 18 21 21 10 8 8 8 8 9 9 6 4
64 58 73 76 79 64 55 53 82 75 43 48 49 39 28 29 22 17 25 24 18 38 44 38 45 52 82 42 32 19 17 21 19 23 10 8 8 8 6 2 2 2 2
85 65 76 71 77 69 61 57 63 59 72 68 38 26 26 31 26 33 30 32 32 38 47 41 48 60 64 62 56 36 30 28 28 14 8 8 7 5 2 1 1 2 3
77 92 82 90 97 89 81 66 53 63 69 61 38 27 31 37 23 40 34 26 39 38 57 57 52 46 46 56 57 52 40 29 12 8 8 8 7 4 2 2 2 3 4
65 84 91 95 95 96 94 89 65 82 61 42 29 27 33 33 25 36 32 42 45 68 99 92 76 61 66 64 51 42 20 9 6 6 6 5 4 3 2 2 2 4 5
61 55 81 82 94 100 100 87 90 78 51 32 26 24 34 28 21 35 29 32 78 97 97 96 95 80 55 31 9 7 6 5 4 4 3 3 2 3 3 4 4 7 10
62 60 56 68 86 77 84 96 78 59 44 37 30 25 35 34 21 23 24 20 36 91 96 94 71 26 10 7 6 5 5 4 4 4 4 4 4 4 4 4 4 6 8
45 50 48 53 68 90 90 96 60 43 45 41 35 26 29 41 27 20 21 21 20 15 26 50 51 39 31 30 15 6 6 6 7 7 6 6 6 6 6 6 8 11 16
34 40 44 48 62 70 93 93 39 44 54 50 41 34 27 38 38 21 19 19 20 19 16 11 12 13 12 10 7 6 7 8 8 8 9 9 8 6 4 3 3 4 5
43 44 45 47 67 88 91 69 47 57 65 53 42 39 30 36 44 30 21 16 14 15 15 15 15 14 13 12 9 8 8 8 8 8 9 10 10 10 9 6 3 2 3
44 64 68 62 50 84 95 70 66 64 64 55 47 40 32 37 44 39 28 26 25 22 20 19 18 18 17 15 12 8 9 10 10 8 7 8 9 10 11 12 7 4 3
45 55 87 93 94 97 96 89 72 79 78 75 62 45 38 46 52 46 38 33 29 26 23 21 21 21 20 18 15 10 7 11 13 10 7 6 6 7 8 11 15 15 12
38 49 94 91 96 96 95 92 95 89 84 72 62 53 54 56 57 50 38 32 28 24 23 22 22 23 23 20 17 12 9 9 12 13 10 7 5 6 9 11 12 14 16
30 44 68 96 97 96 96 97 99 95 90 72 63 69 61 60 59 43 31 27 26 26 27 29 27 24 22 18 14 11 9 10 12 16 16 11 6 5 9 13 16 16 18
28 27 44 90 95 96 96 94 92 92 82 75 83 82 63 66 61 42 32 28 28 28 27 23 18 18 15 12 12 12 10 9 12 16 20 17 11 6 8 15 19 22 23
Wind_Speed
11 12 12 10 9 11 13 13 14 14 16 17 18 18 19 19 19 20 19 17 19 18 19 19 21 20 20 19 18 18 18 17 18 15 15 20 23 25 26 26 28 27 27
13 13 13 14 11 11 11 12 13 15 15 17 17 18 17 19 18 18 19 17 18 19 21 21 23 21 21 19 17 17 17 15 16 22 24 20 20 24 28 29 29 28 29
16 15 14 16 14 11 10 11 12 12 14 16 17 18 19 19 18 19 19 20 19 21 22 22 22 20 22 22 19 19 17 18 19 20 23 23 24 22 23 27 31 31 32
17 18 17 16 14 14 14 13 12 13 14 15 17 18 19 18 19 19 20 21 22 23 23 22 23 22 22 22 21 21 22 22 22 22 23 24 24 27 24 24 26 28 29
15 19 19 19 17 16 17 17 17 17 16 16 18 19 19 20 21 22 23 23 23 23 23 22 23 24 25 23 23 24 23 23 24 25 25 27 28 28 29 26 24 26 27
16 19 19 20 19 16 16 16 18 18 18 19 19 20 21 23 26 28 27 26 26 26 26 26 28 28 26 27 28 27 27 26 26 28 28 28 31 31 30 28 27 25 24
21 20 20 22 20 18 16 16 18 19 20 21 22 22 26 24 24 23 24 26 28 30 30 30 31 31 32 31 31 29 29 29 29 29 29 30 31 35 34 30 29 26 22
25 22 23 22 21 19 17 17 19 19 18 18 20 24 24 21 24 25 29 32 34 36 35 36 35 34 34 35 32 31 30 32 31 28 29 30 30 33 33 31 29 28 26
25 26 23 24 22 20 19 20 21 21 22 22 25 27 26 25 27 37 42 36 45 54 47 39 34 35 35 31 30 31 31 31 30 31 32 31 30 30 31 31 32 30 29
25 27 27 26 25 23 25 26 26 25 25 25 26 25 26 30 32 36 37 37 38 34 33 33 32 33 33 33 33 33 31 31 31 33 32 31 31 30 31 31 35 32 31
28 32 33 31 29 29 30 29 29 27 27 28 28 29 30 31 34 36 35 32 35 26 27 33 29 30 34 36 35 34 31 31 33 34 33 33 32 32 34 31 32 35 36
32 35 35 33 33 31 31 30 28 28 29 29 27 30 31 32 32 32 36 34 35 32 28 24 28 35 37 39 39 37 35 33 33 34 33 34 33 32 31 32 33 36 37
37 37 39 40 39 38 35 32 33 32 26 25 28 29 29 30 31 32 31 34 36 37 35 33 35 37 32 38 40 38 36 35 35 37 34 33 32 31 31 32 34 35 36
41 42 42 44 44 44 41 37 34 32 28 27 28 29 30 29 30 30 32 33 36 34 34 32 33 31 29 31 35 36 37 35 36 35 32 32 32 32 30 32 31 28 27
49 53 48 46 48 49 42 38 32 32 29 30 31 30 28 29 29 30 32 35 30 32 31 30 32 35 34 33 31 34 35 35 33 31 31 31 32 30 29 28 28 26 27
47 55 51 45 50 45 41 39 35 33 30 31 30 28 27 28 25 25 27 35 27 25 31 28 29 33 32 27 30 34 32 30 29 29 29 30 29 28 27 27 25 24 23
48 46 40 42 47 48 46 46 34 32 30 29 28 26 26 26 24 21 27 31 21 26 27 21 21 22 23 25 23 24 24 24 25 25 25 24 25 25 23 23 21 22 22
52 49 46 49 52 56 56 48 32 28 27 26 26 25 25 24 23 25 27 24 15 21 28 18 10 14 16 15 16 18 20 20 19 18 19 19 19 20 21 22 22 23 24
58 50 52 50 53 49 49 39 28 26 25 23 24 25 26 23 23 22 24 23 18 13 10 9 13 16 19 19 18 17 17 19 17 16 16 16 17 18 19 20 20 21 21
52 52 49 49 53 55 54 44 32 28 27 26 26 25 27 25 22 22 23 20 18 16 15 16 17 17 17 16 17 16 16 16 15 15 14 14 14 13 13 14 15 16 15
45 51 48 48 46 48 53 40 35 32 29 29 27 26 26 26 23 22 23 22 21 21 22 21 21 22 22 21 19 16 16 15 14 14 14 13 13 12 11 11 11 11 10
39 41 46 47 49 49 40 36 38 34 32 30 28 28 26 25 25 24 24 25 24 24 24 24 24 24 23 24 23 21 18 15 14 14 14 13 12 12 12 10 9 9 9
44 44 39 50 45 50 51 44 41 38 35 34 32 30 27 26 25 23 25 27 28 28 28 28 27 27 27 26 24 22 22 19 16 14 14 13 13 12 11 10 8 6 5
43 42 34 27 30 41 46 43 38 36 35 36 33 30 28 25 22 23 26 28 28 28 28 28 28 27 28 27 26 25 22 20 19 18 16 15 14 13 13 12 11 11 11
41 41 44 29 31 40 35 35 32 31 35 38 33 31 29 24 23 24 25 25 27 29 28 28 28 28 26 26 25 24 22 21 21 21 19 18 17 16 16 16 15 15 14
38 41 39 36 34 35 38 33 33 30 34 36 36 34 31 26 24 26 26 25 26 27 27 28 27 27 26 26 25 23 23 23 23 23 22 21 20 20 20 21 21 19 19
Wind_Direction
264 262 253 252 254 257 256 250 245 243 244 245 246 245 251 248 245 250 258 262 266 267 269 270 277 281 281 278 277 275 275 274 278 281 270 262 261 263 266 266 267 267 268
262 257 251 241 242 249 257 256 253 252 250 251 252 253 251 252 250 252 258 255 259 265 270 274 276 277 280 284 284 282 284 286 276 290 291 292 275 262 263 264 263 264 264
256 258 253 245 242 240 245 249 247 249 256 261 262 261 261 260 258 257 261 262 263 263 263 263 265 268 272 277 281 284 288 293 291 291 291 292 288 281 275 271 268 266 265
254 253 251 251 243 241 235 235 248 256 257 257 259 262 262 264 266 267 267 268 266 264 265 266 266 266 268 273 275 277 278 286 288 289 290 292 290 284 276 271 272 270 271
263 256 253 252 246 246 243 248 253 257 257 254 252 253 255 258 259 258 259 261 263 262 263 265 267 269 271 274 276 278 279 282 287 292 295 293 294 292 287 282 274 272 272
273 261 252 248 245 248 255 253 252 255 260 265 265 264 260 253 251 252 253 255 256 257 263 265 264 264 267 265 267 272 278 283 287 290 294 295 294 294 292 284 280 280 273
275 262 256 252 251 247 258 263 265 267 270 270 270 270 267 272 277 282 280 273 269 265 263 265 265 265 264 264 265 268 272 280 282 286 290 292 291 292 293 287 281 283 281
280 262 256 255 250 247 250 255 262 267 267 270 271 272 279 284 282 280 278 274 272 260 256 257 259 261 268 272 257 264 271 276 279 289 292 291 287 285 286 286 280 276 276
273 256 253 248 247 248 256 262 268 268 267 267 269 272 280 281 286 284 287 304 269 299 247 247 263 263 263 264 262 266 274 274 284 292 292 289 284 283 282 285 283 281 276
253 247 242 239 243 251 257 262 266 268 269 269 271 277 278 280 285 288 296 309 304 308 233 244 251 260 264 256 264 266 268 276 285 291 291 289 287 283 281 278 280 282 279
238 234 240 245 247 253 257 261 264 270 271 266 268 271 279 285 286 287 289 290 287 303 288 251 256 254 257 258 263 265 268 278 285 289 289 287 284 283 284 281 276 277 279
233 234 239 242 251 251 252 257 263 269 268 271 270 271 275 278 280 285 290 286 282 279 273 278 272 264 261 261 263 265 270 275 282 288 290 286 284 283 280 278 274 273 276
237 233 235 244 250 251 252 253 258 262 268 266 264 268 272 276 286 284 288 281 277 270 268 265 266 272 272 259 261 264 273 277 282 286 287 286 286 284 284 282 278 273 269
240 234 234 237 240 247 251 251 254 259 265 265 269 272 273 283 295 299 296 295 280 270 264 264 266 271 273 270 269 269 271 276 282 281 283 283 283 283 283 284 281 273 268
247 234 232 235 237 234 239 247 249 257 264 268 268 273 276 290 293 298 304 301 281 263 265 267 261 267 273 277 272 273 276 280 276 278 278 278 279 279 279 283 275 270 269
249 242 239 234 239 242 228 238 244 252 261 266 268 274 275 288 292 301 312 311 273 253 262 281 262 264 275 279 280 281 279 279 278 275 276 277 277 279 281 282 281 276 272
252 257 255 233 242 250 244 237 233 244 259 263 267 274 276 286 291 309 313 328 256 258 269 255 264 261 271 277 279 280 279 278 279 280 279 278 279 281 279 282 280 279 275
247 246 245 241 241 245 247 233 223 242 256 263 269 274 274 283 291 297 309 326 342 263 277 284 272 282 284 283 286 287 288 288 288 290 289 288 286 287 286 283 283 281 280
246 245 247 242 245 244 242 235 231 243 253 262 269 273 270 283 290 294 300 306 317 313 295 278 261 272 276 276 279 287 295 297 299 299 300 299 297 293 288 286 282 277 276
245 243 242 243 245 249 237 250 239 242 248 258 263 272 270 275 287 292 293 296 300 298 290 279 278 282 286 294 299 301 302 305 308 304 309 312 312 307 302 294 286 282 281
237 236 236 234 237 246 246 231 235 238 246 253 259 267 269 271 281 286 291 294 292 288 286 285 287 289 290 291 290 292 296 303 307 306 309 315 324 326 319 308 301 293 287
231 234 242 237 236 232 226 229 236 239 246 249 256 260 264 268 274 283 287 289 289 289 286 284 283 283 285 285 287 288 286 290 294 299 302 305 309 315 321 318 313 305 293
228 232 249 231 235 225 221 227 232 236 241 249 249 255 258 262 269 277 283 286 285 282 282 283 286 286 284 281 278 277 279 279 281 285 289 291 297 301 302 298 293 289 282
227 224 226 212 214 223 220 222 229 237 238 238 241 248 254 258 265 272 277 278 280 281 283 285 286 283 281 279 279 278 277 275 274 273 276 277 275 274 276 277 276 275 272
228 230 235 242 216 210 216 222 230 241 248 238 236 244 251 255 260 267 270 276 280 281 281 281 280 280 277 274 275 275 273 270 267 266 264 266 267 267 270 266 262 260 261
228 228 230 236 231 207 225 234 240 242 234 238 240 243 248 252 260 267 271 276 279 279 279 278 280 284 284 281 277 273 271 266 263 263 262 260 260 259 259 261 261 262 265